TimeCST,TemperatureF,Dew PointF,Humidity,Sea Level PressureIn,VisibilityMPH,Wind Direction,Wind SpeedMPH,Gust SpeedMPH,PrecipitationIn,Events,Conditions,WindDirDegrees,DateUTC
12:53 AM,34.0,27.0,75,29.90,10.0,WNW,3.5,-,N/A,,Clear,300,2013-11-15 06:53:00
1:53 AM,30.0,26.1,85,29.89,10.0,West,5.8,-,N/A,,Clear,280,2013-11-15 07:53:00
2:53 AM,30.9,26.1,82,29.87,10.0,WNW,4.6,-,N/A,,Clear,290,2013-11-15 08:53:00
3:53 AM,30.9,25.0,79,29.86,10.0,West,4.6,-,N/A,,Clear,280,2013-11-15 09:53:00
4:53 AM,30.9,27.0,85,29.84,10.0,West,4.6,-,N/A,,Clear,260,2013-11-15 10:53:00
5:53 AM,30.0,26.1,85,29.84,10.0,WSW,9.2,-,N/A,,Clear,240,2013-11-15 11:53:00
6:53 AM,28.0,25.0,88,29.84,10.0,SSW,9.2,-,N/A,,Clear,200,2013-11-15 12:53:00
7:53 AM,28.9,26.1,89,29.86,10.0,South,9.2,-,N/A,,Clear,190,2013-11-15 13:53:00
8:53 AM,39.0,30.9,73,29.85,10.0,SSW,9.2,-,N/A,,Clear,210,2013-11-15 14:53:00
9:53 AM,50.0,33.1,52,29.82,10.0,SSW,9.2,-,N/A,,Clear,210,2013-11-15 15:53:00
10:53 AM,57.9,30.9,36,29.78,10.0,SSW,18.4,24.2,N/A,,Clear,200,2013-11-15 16:53:00
11:53 AM,63.0,33.1,33,29.73,10.0,SSW,23.0,28.8,N/A,,Clear,210,2013-11-15 17:53:00
12:53 PM,64.9,30.9,28,29.69,10.0,SW,23.0,32.2,N/A,,Clear,220,2013-11-15 18:53:00
1:53 PM,66.9,28.9,24,29.65,10.0,SW,25.3,31.1,N/A,,Clear,220,2013-11-15 19:53:00
2:53 PM,66.9,28.9,24,29.63,10.0,SSW,23.0,34.5,N/A,,Clear,210,2013-11-15 20:53:00
3:53 PM,66.9,28.9,24,29.61,10.0,SW,25.3,32.2,N/A,,Clear,220,2013-11-15 21:53:00
4:53 PM,64.9,30.0,27,29.60,10.0,SSW,21.9,31.1,N/A,,Clear,210,2013-11-15 22:53:00
5:53 PM,62.1,30.9,31,29.61,10.0,SSW,20.7,27.6,N/A,,Clear,210,2013-11-15 23:53:00
6:53 PM,59.0,30.0,33,29.63,10.0,SSW,13.8,-,N/A,,Clear,200,2013-11-16 00:53:00
7:53 PM,57.0,30.9,37,29.64,10.0,SSW,16.1,-,N/A,,Clear,210,2013-11-16 01:53:00
8:53 PM,55.0,34.0,45,29.62,10.0,SSW,17.3,-,N/A,,Clear,210,2013-11-16 02:53:00
9:53 PM,53.1,36.0,52,29.60,10.0,SSW,13.8,-,N/A,,Clear,210,2013-11-16 03:53:00
10:53 PM,53.1,37.0,55,29.57,10.0,SSW,16.1,-,N/A,,Clear,210,2013-11-16 04:53:00
11:53 PM,52.0,37.0,57,29.55,10.0,SSW,17.3,26.5,N/A,,Clear,200,2013-11-16 05:53:00